contact:dominique.lefevre@mio.osupytheas.fr, maurice.libes@osupytheas.fr, didier.mallarino@osupytheas.fr
Project:EMSO http://www.emso-fr.org/EMSO-France
Depth: 2436.0 m
Title:EMSO Ligure Ouest : Data MII capteur MICROCAT
DateTime_Computer,Latitude,Longitude,Temperature,Conductivity,Pressure,DateTime_Instrument
DateTime_Computer,Latitude,Longitude,degC,S m-1,dbar,DateTime_Instrument
2017-11-14T00:01:48Z,42.805,6.029,13.2935,4.59959,2471.844,2017-11-14T02:03:15Z
2017-11-14T00:04:51Z,42.805,6.029,13.2941,4.59957,2471.874,2017-11-14T02:06:18Z
2017-11-14T00:07:54Z,42.805,6.029,13.2939,4.59958,2471.852,2017-11-14T02:09:21Z
2017-11-14T00:10:57Z,42.805,6.029,13.2939,4.59958,2471.866,2017-11-14T02:12:24Z
2017-11-14T00:14:00Z,42.805,6.029,13.2940,4.59958,2471.866,2017-11-14T02:15:27Z
2017-11-14T00:17:03Z,42.805,6.029,13.2939,4.59957,2471.912,2017-11-14T02:18:30Z
2017-11-14T00:20:06Z,42.805,6.029,13.2940,4.59957,2471.866,2017-11-14T02:21:33Z
2017-11-14T00:23:08Z,42.805,6.029,13.2941,4.59956,2471.844,2017-11-14T02:24:36Z
2017-11-14T00:26:11Z,42.805,6.029,13.2935,4.59958,2471.889,2017-11-14T02:27:39Z
2017-11-14T00:29:14Z,42.805,6.029,13.2938,4.59957,2471.866,2017-11-14T02:30:41Z
2017-11-14T00:32:17Z,42.805,6.029,13.2937,4.59958,2471.889,2017-11-14T02:33:44Z
2017-11-14T00:35:20Z,42.805,6.029,13.2935,4.59956,2471.852,2017-11-14T02:36:47Z
2017-11-14T00:38:23Z,42.805,6.029,13.2937,4.59958,2471.889,2017-11-14T02:39:50Z
2017-11-14T00:41:26Z,42.805,6.029,13.2941,4.59957,2471.852,2017-11-14T02:42:53Z
2017-11-14T00:44:29Z,42.805,6.029,13.2934,4.59956,2471.874,2017-11-14T02:45:56Z
2017-11-14T00:47:32Z,42.805,6.029,13.2938,4.59957,2471.889,2017-11-14T02:48:59Z
2017-11-14T00:50:34Z,42.805,6.029,13.2935,4.59957,2471.866,2017-11-14T02:52:02Z
2017-11-14T00:53:37Z,42.805,6.029,13.2939,4.59957,2471.912,2017-11-14T02:55:05Z
2017-11-14T00:56:40Z,42.805,6.029,13.2945,4.59959,2471.866,2017-11-14T02:58:07Z
2017-11-14T00:59:43Z,42.805,6.029,13.2933,4.59957,2471.897,2017-11-14T03:01:10Z
2017-11-14T01:02:46Z,42.805,6.029,13.2941,4.59957,2471.957,2017-11-14T03:04:13Z
2017-11-14T01:05:49Z,42.805,6.029,13.2940,4.59957,2471.889,2017-11-14T03:07:16Z
2017-11-14T01:08:52Z,42.805,6.029,13.2944,4.59961,2471.904,2017-11-14T03:10:19Z
2017-11-14T01:11:55Z,42.805,6.029,13.2945,4.59960,2471.912,2017-11-14T03:13:22Z
2017-11-14T01:14:58Z,42.805,6.029,13.2946,4.59966,2471.934,2017-11-14T03:16:25Z
2017-11-14T01:18:00Z,42.805,6.029,13.2939,4.59958,2471.934,2017-11-14T03:19:28Z
2017-11-14T01:21:03Z,42.805,6.029,13.2939,4.59964,2471.934,2017-11-14T03:22:31Z
2017-11-14T01:24:06Z,42.805,6.029,13.2943,4.59963,2471.912,2017-11-14T03:25:33Z
2017-11-14T01:27:09Z,42.805,6.029,13.2954,4.59991,2471.912,2017-11-14T03:28:36Z
2017-11-14T01:30:12Z,42.805,6.029,13.2956,4.59983,2471.957,2017-11-14T03:31:39Z
2017-11-14T01:33:15Z,42.805,6.029,13.2948,4.59979,2471.912,2017-11-14T03:34:42Z
2017-11-14T01:36:18Z,42.805,6.029,13.2936,4.59961,2471.934,2017-11-14T03:37:45Z
2017-11-14T01:39:21Z,42.805,6.029,13.2952,4.59991,2471.934,2017-11-14T03:40:48Z
2017-11-14T01:42:24Z,42.805,6.029,13.2954,4.59998,2471.934,2017-11-14T03:43:51Z
2017-11-14T01:45:27Z,42.805,6.029,13.2957,4.59968,2471.957,2017-11-14T03:46:54Z
2017-11-14T01:48:29Z,42.805,6.029,13.2949,4.59973,2471.919,2017-11-14T03:49:57Z
2017-11-14T01:51:32Z,42.805,6.029,13.2948,4.59963,2471.934,2017-11-14T03:53:00Z
2017-11-14T01:54:35Z,42.805,6.029,13.2943,4.59972,2471.979,2017-11-14T03:56:02Z
2017-11-14T01:57:38Z,42.805,6.029,13.2964,4.59995,2471.934,2017-11-14T03:59:05Z
2017-11-14T02:00:41Z,42.805,6.029,13.2961,4.59998,2471.979,2017-11-14T04:02:08Z
2017-11-14T02:03:44Z,42.805,6.029,13.2960,4.60014,2471.957,2017-11-14T04:05:11Z
2017-11-14T02:06:47Z,42.805,6.029,13.2957,4.59986,2471.949,2017-11-14T04:08:14Z
2017-11-14T02:09:50Z,42.805,6.029,13.2941,4.59964,2471.919,2017-11-14T04:11:17Z
2017-11-14T02:12:53Z,42.805,6.029,13.2969,4.59981,2471.919,2017-11-14T04:14:20Z
2017-11-14T02:15:55Z,42.805,6.029,13.2957,4.59979,2471.979,2017-11-14T04:17:23Z
2017-11-14T02:18:58Z,42.805,6.029,13.2934,4.59979,2471.942,2017-11-14T04:20:26Z
2017-11-14T02:22:01Z,42.805,6.029,13.2939,4.59961,2471.957,2017-11-14T04:23:28Z
2017-11-14T02:25:04Z,42.805,6.029,13.2941,4.59965,2471.897,2017-11-14T04:26:31Z
2017-11-14T02:28:07Z,42.805,6.029,13.2947,4.59964,2471.957,2017-11-14T04:29:34Z
2017-11-14T02:31:10Z,42.805,6.029,13.2948,4.59988,2471.957,2017-11-14T04:32:37Z
2017-11-14T02:34:13Z,42.805,6.029,13.2948,4.59965,2471.957,2017-11-14T04:35:40Z
2017-11-14T02:37:16Z,42.805,6.029,13.2949,4.59970,2471.979,2017-11-14T04:38:43Z
2017-11-14T02:40:19Z,42.805,6.029,13.2943,4.59975,2471.979,2017-11-14T04:41:46Z
2017-11-14T02:43:22Z,42.805,6.029,13.2957,4.59991,2471.942,2017-11-14T04:44:49Z
2017-11-14T02:46:24Z,42.805,6.029,13.2948,4.59967,2471.957,2017-11-14T04:47:52Z
2017-11-14T02:49:27Z,42.805,6.029,13.2953,4.59992,2471.957,2017-11-14T04:50:55Z
2017-11-14T02:52:30Z,42.805,6.029,13.2953,4.59967,2471.979,2017-11-14T04:53:57Z
2017-11-14T02:55:33Z,42.805,6.029,13.2956,4.59968,2471.957,2017-11-14T04:57:00Z
2017-11-14T02:58:36Z,42.805,6.029,13.2938,4.59963,2471.964,2017-11-14T05:00:03Z
2017-11-14T03:01:39Z,42.805,6.029,13.2951,4.59972,2471.957,2017-11-14T05:03:06Z
2017-11-14T03:04:42Z,42.805,6.029,13.2947,4.59975,2472.01,2017-11-14T05:06:09Z
2017-11-14T03:07:45Z,42.805,6.029,13.2941,4.59963,2471.979,2017-11-14T05:09:12Z
2017-11-14T03:10:47Z,42.805,6.029,13.2939,4.59964,2471.964,2017-11-14T05:12:15Z
2017-11-14T03:13:50Z,42.805,6.029,13.2944,4.59967,2472.002,2017-11-14T05:15:18Z
2017-11-14T03:16:53Z,42.805,6.029,13.2946,4.59967,2471.979,2017-11-14T05:18:21Z
2017-11-14T03:19:56Z,42.805,6.029,13.2940,4.59963,2471.919,2017-11-14T05:21:23Z
2017-11-14T03:22:59Z,42.805,6.029,13.2942,4.59967,2471.979,2017-11-14T05:24:26Z
2017-11-14T03:26:02Z,42.805,6.029,13.2943,4.59961,2472.002,2017-11-14T05:27:29Z
2017-11-14T03:29:05Z,42.805,6.029,13.2940,4.59964,2471.964,2017-11-14T05:30:32Z
2017-11-14T03:32:08Z,42.805,6.029,13.2940,4.59961,2471.979,2017-11-14T05:33:35Z
2017-11-14T03:35:11Z,42.805,6.029,13.2943,4.59962,2472.002,2017-11-14T05:36:38Z
2017-11-14T03:38:14Z,42.805,6.029,13.2943,4.59964,2472.002,2017-11-14T05:39:41Z
2017-11-14T03:41:16Z,42.805,6.029,13.2941,4.59960,2472.002,2017-11-14T05:42:44Z
2017-11-14T03:44:19Z,42.805,6.029,13.2939,4.59961,2472.002,2017-11-14T05:45:47Z
2017-11-14T03:47:22Z,42.805,6.029,13.2935,4.59961,2471.987,2017-11-14T05:48:49Z
2017-11-14T03:50:25Z,42.805,6.029,13.2939,4.59960,2472.002,2017-11-14T05:51:52Z
2017-11-14T03:53:28Z,42.805,6.029,13.2938,4.59959,2472.002,2017-11-14T05:54:55Z
2017-11-14T03:56:31Z,42.805,6.029,13.2936,4.59961,2472.002,2017-11-14T05:57:58Z
2017-11-14T03:59:34Z,42.805,6.029,13.2940,4.59962,2472.01,2017-11-14T06:01:01Z
2017-11-14T04:02:37Z,42.805,6.029,13.2937,4.59961,2471.987,2017-11-14T06:04:04Z
2017-11-14T04:05:40Z,42.805,6.029,13.2936,4.59964,2472.024,2017-11-14T06:07:07Z
2017-11-14T04:08:42Z,42.805,6.029,13.2943,4.59963,2472.01,2017-11-14T06:10:10Z
2017-11-14T04:11:45Z,42.805,6.029,13.2939,4.59961,2471.964,2017-11-14T06:13:13Z
2017-11-14T04:14:48Z,42.805,6.029,13.2941,4.59962,2472.002,2017-11-14T06:16:15Z
2017-11-14T04:17:51Z,42.805,6.029,13.2940,4.59959,2472.002,2017-11-14T06:19:18Z
2017-11-14T04:20:54Z,42.805,6.029,13.2942,4.59960,2471.987,2017-11-14T06:22:21Z
2017-11-14T04:23:57Z,42.805,6.029,13.2938,4.59962,2472.024,2017-11-14T06:25:24Z
2017-11-14T04:27:00Z,42.805,6.029,13.2943,4.59963,2472.024,2017-11-14T06:28:27Z
2017-11-14T04:30:03Z,42.805,6.029,13.2941,4.59961,2472.002,2017-11-14T06:31:30Z
2017-11-14T04:33:06Z,42.805,6.029,13.2939,4.59960,2472.002,2017-11-14T06:34:33Z
2017-11-14T04:36:08Z,42.805,6.029,13.2942,4.59966,2472.024,2017-11-14T06:37:36Z
2017-11-14T04:39:11Z,42.805,6.029,13.2942,4.59961,2472.002,2017-11-14T06:40:39Z
2017-11-14T04:42:14Z,42.805,6.029,13.2939,4.59959,2472.002,2017-11-14T06:43:41Z
2017-11-14T04:45:17Z,42.805,6.029,13.2942,4.59961,2472.002,2017-11-14T06:46:44Z
2017-11-14T04:48:20Z,42.805,6.029,13.2938,4.59960,2471.987,2017-11-14T06:49:47Z
2017-11-14T04:51:23Z,42.805,6.029,13.2940,4.59961,2472.002,2017-11-14T06:52:50Z
2017-11-14T04:54:26Z,42.805,6.029,13.2941,4.59961,2472.024,2017-11-14T06:55:53Z
2017-11-14T04:57:29Z,42.805,6.029,13.2940,4.59961,2471.987,2017-11-14T06:58:56Z
2017-11-14T05:00:32Z,42.805,6.029,13.2939,4.59961,2472.002,2017-11-14T07:01:59Z
2017-11-14T05:03:35Z,42.805,6.029,13.2938,4.59960,2471.979,2017-11-14T07:05:02Z
2017-11-14T05:06:37Z,42.805,6.029,13.2939,4.59959,2472.047,2017-11-14T07:08:05Z
2017-11-14T05:09:40Z,42.805,6.029,13.2940,4.59961,2472.047,2017-11-14T07:11:08Z
2017-11-14T05:12:43Z,42.805,6.029,13.2939,4.59961,2472.01,2017-11-14T07:14:10Z
2017-11-14T05:15:46Z,42.805,6.029,13.2936,4.59964,2472.047,2017-11-14T07:17:13Z
2017-11-14T05:18:49Z,42.805,6.029,13.2942,4.59958,2472.002,2017-11-14T07:20:16Z
2017-11-14T05:21:52Z,42.805,6.029,13.2940,4.59960,2471.987,2017-11-14T07:23:19Z
2017-11-14T05:24:55Z,42.805,6.029,13.2938,4.59960,2472.024,2017-11-14T07:26:22Z
2017-11-14T05:27:58Z,42.805,6.029,13.2941,4.59961,2472.024,2017-11-14T07:29:25Z
2017-11-14T05:31:01Z,42.805,6.029,13.2941,4.59958,2472.024,2017-11-14T07:32:28Z
2017-11-14T05:34:03Z,42.805,6.029,13.2941,4.59960,2472.002,2017-11-14T07:35:31Z
2017-11-14T05:37:06Z,42.805,6.029,13.2937,4.59960,2471.987,2017-11-14T07:38:34Z
2017-11-14T05:40:09Z,42.805,6.029,13.2942,4.59960,2472.024,2017-11-14T07:41:36Z
2017-11-14T05:43:12Z,42.805,6.029,13.2935,4.59964,2472.024,2017-11-14T07:44:39Z
2017-11-14T05:46:15Z,42.805,6.029,13.2940,4.59959,2472.024,2017-11-14T07:47:42Z
2017-11-14T05:49:18Z,42.805,6.029,13.2940,4.59960,2472.002,2017-11-14T07:50:45Z
2017-11-14T05:52:21Z,42.805,6.029,13.2940,4.59959,2472.024,2017-11-14T07:53:48Z
2017-11-14T05:55:24Z,42.805,6.029,13.2940,4.59961,2472.024,2017-11-14T07:56:51Z
2017-11-14T05:58:27Z,42.805,6.029,13.2939,4.59961,2472.024,2017-11-14T07:59:54Z
2017-11-14T06:01:29Z,42.805,6.029,13.2940,4.59961,2472.002,2017-11-14T08:02:57Z
2017-11-14T06:04:32Z,42.805,6.029,13.2941,4.59959,2472.002,2017-11-14T08:06:00Z
2017-11-14T06:07:35Z,42.805,6.029,13.2940,4.59959,2472.01,2017-11-14T08:09:02Z
2017-11-14T06:10:38Z,42.805,6.029,13.2939,4.59961,2472.024,2017-11-14T08:12:05Z
2017-11-14T06:13:41Z,42.805,6.029,13.2940,4.59959,2472.024,2017-11-14T08:15:08Z
2017-11-14T06:16:44Z,42.805,6.029,13.2940,4.59958,2472.047,2017-11-14T08:18:11Z
2017-11-14T06:19:47Z,42.805,6.029,13.2939,4.59961,2471.987,2017-11-14T08:21:14Z
2017-11-14T06:22:50Z,42.805,6.029,13.2941,4.59959,2472.024,2017-11-14T08:24:17Z
2017-11-14T06:25:53Z,42.805,6.029,13.2942,4.59960,2472.002,2017-11-14T08:27:20Z
2017-11-14T06:28:55Z,42.805,6.029,13.2939,4.59961,2472.002,2017-11-14T08:30:23Z
2017-11-14T06:31:58Z,42.805,6.029,13.2939,4.59961,2472.024,2017-11-14T08:33:26Z
2017-11-14T06:35:01Z,42.805,6.029,13.2939,4.59958,2472.024,2017-11-14T08:36:28Z
2017-11-14T06:38:04Z,42.805,6.029,13.2944,4.59958,2472.002,2017-11-14T08:39:31Z
2017-11-14T06:41:07Z,42.805,6.029,13.2941,4.59958,2472.002,2017-11-14T08:42:34Z
2017-11-14T06:44:10Z,42.805,6.029,13.2938,4.59959,2472.01,2017-11-14T08:45:37Z
2017-11-14T06:47:13Z,42.805,6.029,13.2937,4.59960,2472.002,2017-11-14T08:48:40Z
2017-11-14T06:50:16Z,42.805,6.029,13.2941,4.59961,2472.002,2017-11-14T08:51:43Z
2017-11-14T06:53:19Z,42.805,6.029,13.2933,4.59958,2472.002,2017-11-14T08:54:46Z
2017-11-14T06:56:22Z,42.805,6.029,13.2939,4.59958,2471.987,2017-11-14T08:57:49Z
2017-11-14T06:59:24Z,42.805,6.029,13.2940,4.59958,2472.002,2017-11-14T09:00:52Z
2017-11-14T07:02:27Z,42.805,6.029,13.2935,4.59959,2471.979,2017-11-14T09:03:55Z
2017-11-14T07:05:30Z,42.805,6.029,13.2938,4.59957,2471.979,2017-11-14T09:06:57Z
2017-11-14T07:08:33Z,42.805,6.029,13.2935,4.59956,2472.024,2017-11-14T09:10:00Z
2017-11-14T07:11:36Z,42.805,6.029,13.2936,4.59964,2471.987,2017-11-14T09:13:03Z
2017-11-14T07:14:39Z,42.805,6.029,13.2939,4.59958,2471.979,2017-11-14T09:16:06Z
2017-11-14T07:17:42Z,42.805,6.029,13.2939,4.59958,2472.01,2017-11-14T09:19:09Z
2017-11-14T07:20:45Z,42.805,6.029,13.2936,4.59958,2471.979,2017-11-14T09:22:12Z
2017-11-14T07:23:47Z,42.805,6.029,13.2938,4.59959,2472.002,2017-11-14T09:25:15Z
2017-11-14T07:26:50Z,42.805,6.029,13.2939,4.59958,2472.002,2017-11-14T09:28:18Z
2017-11-14T07:29:53Z,42.805,6.029,13.2942,4.59957,2472.024,2017-11-14T09:31:21Z
2017-11-14T07:32:56Z,42.805,6.029,13.2943,4.59961,2471.964,2017-11-14T09:34:23Z
2017-11-14T07:35:59Z,42.805,6.029,13.2944,4.59961,2471.964,2017-11-14T09:37:26Z
2017-11-14T07:39:02Z,42.805,6.029,13.2945,4.59959,2472.002,2017-11-14T09:40:29Z
2017-11-14T07:42:05Z,42.805,6.029,13.2945,4.59958,2471.979,2017-11-14T09:43:32Z
2017-11-14T07:45:08Z,42.805,6.029,13.2939,4.59958,2471.987,2017-11-14T09:46:35Z
2017-11-14T07:48:11Z,42.805,6.029,13.2935,4.59958,2471.979,2017-11-14T09:49:38Z
2017-11-14T07:51:14Z,42.805,6.029,13.2944,4.59959,2471.957,2017-11-14T09:52:41Z
2017-11-14T07:54:16Z,42.805,6.029,13.2940,4.59958,2472.002,2017-11-14T09:55:44Z
2017-11-14T07:57:19Z,42.805,6.029,13.2939,4.59958,2471.979,2017-11-14T09:58:47Z
2017-11-14T08:00:22Z,42.805,6.029,13.2937,4.59960,2471.964,2017-11-14T10:01:49Z
2017-11-14T08:03:25Z,42.805,6.029,13.2941,4.59972,2472.002,2017-11-14T10:04:52Z
2017-11-14T08:06:28Z,42.805,6.029,13.2938,4.59959,2471.979,2017-11-14T10:07:55Z
2017-11-14T08:09:31Z,42.805,6.029,13.2941,4.59959,2471.964,2017-11-14T10:10:58Z
2017-11-14T08:12:34Z,42.805,6.029,13.2942,4.59958,2471.987,2017-11-14T10:14:01Z
2017-11-14T08:15:37Z,42.805,6.029,13.2940,4.59959,2471.957,2017-11-14T10:17:04Z
2017-11-14T08:18:40Z,42.805,6.029,13.2943,4.59958,2471.979,2017-11-14T10:20:07Z
2017-11-14T08:21:42Z,42.805,6.029,13.2941,4.59958,2472.01,2017-11-14T10:23:10Z
2017-11-14T08:24:45Z,42.805,6.029,13.2941,4.59963,2471.957,2017-11-14T10:26:13Z
2017-11-14T08:27:48Z,42.805,6.029,13.2940,4.59957,2471.957,2017-11-14T10:29:16Z
2017-11-14T08:30:51Z,42.805,6.029,13.2938,4.59959,2471.964,2017-11-14T10:32:18Z
2017-11-14T08:33:54Z,42.805,6.029,13.2937,4.59958,2471.942,2017-11-14T10:35:21Z
2017-11-14T08:36:57Z,42.805,6.029,13.2939,4.59958,2471.979,2017-11-14T10:38:24Z
2017-11-14T08:40:00Z,42.805,6.029,13.2942,4.59958,2471.979,2017-11-14T10:41:27Z
2017-11-14T08:43:03Z,42.805,6.029,13.2936,4.59958,2472.002,2017-11-14T10:44:30Z
2017-11-14T08:46:06Z,42.805,6.029,13.2938,4.59958,2471.964,2017-11-14T10:47:33Z
2017-11-14T08:49:09Z,42.805,6.029,13.2941,4.59960,2471.964,2017-11-14T10:50:36Z
2017-11-14T08:52:11Z,42.805,6.029,13.2940,4.59957,2471.979,2017-11-14T10:53:39Z
2017-11-14T08:55:14Z,42.805,6.029,13.2942,4.59957,2471.979,2017-11-14T10:56:42Z
2017-11-14T08:58:17Z,42.805,6.029,13.2940,4.59959,2471.979,2017-11-14T10:59:45Z
2017-11-14T09:01:20Z,42.805,6.029,13.2941,4.59957,2471.979,2017-11-14T11:02:47Z
2017-11-14T09:04:23Z,42.805,6.029,13.2940,4.59960,2471.942,2017-11-14T11:05:50Z
2017-11-14T09:07:26Z,42.805,6.029,13.2940,4.59958,2471.979,2017-11-14T11:08:53Z
2017-11-14T09:10:29Z,42.805,6.029,13.2940,4.59957,2471.942,2017-11-14T11:11:56Z
2017-11-14T09:13:32Z,42.805,6.029,13.2939,4.59958,2471.942,2017-11-14T11:14:59Z
2017-11-14T09:16:35Z,42.805,6.029,13.2939,4.59957,2471.964,2017-11-14T11:18:02Z
2017-11-14T09:19:38Z,42.805,6.029,13.2941,4.59956,2471.957,2017-11-14T11:21:05Z
2017-11-14T09:22:40Z,42.805,6.029,13.2943,4.59961,2471.942,2017-11-14T11:24:08Z
2017-11-14T09:25:43Z,42.805,6.029,13.2936,4.59958,2471.957,2017-11-14T11:27:11Z
2017-11-14T09:28:46Z,42.805,6.029,13.2939,4.59958,2471.957,2017-11-14T11:30:13Z
2017-11-14T09:31:49Z,42.805,6.029,13.2936,4.59957,2471.957,2017-11-14T11:33:16Z
2017-11-14T09:34:52Z,42.805,6.029,13.2937,4.59956,2471.979,2017-11-14T11:36:19Z
2017-11-14T09:37:55Z,42.805,6.029,13.2936,4.59956,2471.964,2017-11-14T11:39:22Z
2017-11-14T09:40:58Z,42.805,6.029,13.2941,4.59958,2471.964,2017-11-14T11:42:25Z
2017-11-14T09:44:01Z,42.805,6.029,13.2940,4.59956,2471.979,2017-11-14T11:45:28Z
2017-11-14T09:47:04Z,42.805,6.029,13.2939,4.59957,2471.957,2017-11-14T11:48:31Z
2017-11-14T09:50:07Z,42.805,6.029,13.2937,4.59956,2471.957,2017-11-14T11:51:34Z
2017-11-14T09:53:09Z,42.805,6.029,13.2936,4.59956,2471.957,2017-11-14T11:54:37Z
2017-11-14T09:56:12Z,42.805,6.029,13.2939,4.59958,2471.964,2017-11-14T11:57:40Z
2017-11-14T09:59:15Z,42.805,6.029,13.2940,4.59956,2471.957,2017-11-14T12:00:42Z
2017-11-14T10:02:18Z,42.805,6.029,13.2942,4.59956,2471.979,2017-11-14T12:03:45Z
2017-11-14T10:05:21Z,42.805,6.029,13.2940,4.59956,2471.964,2017-11-14T12:06:48Z
2017-11-14T10:08:24Z,42.805,6.029,13.2936,4.59958,2471.979,2017-11-14T12:09:51Z
2017-11-14T10:11:27Z,42.805,6.029,13.2937,4.59959,2471.957,2017-11-14T12:12:54Z
2017-11-14T10:14:30Z,42.805,6.029,13.2939,4.59959,2471.987,2017-11-14T12:15:57Z
2017-11-14T10:17:33Z,42.805,6.029,13.2938,4.59956,2471.964,2017-11-14T12:19:00Z
2017-11-14T10:20:36Z,42.805,6.029,13.2936,4.59958,2471.957,2017-11-14T12:22:03Z
2017-11-14T10:23:38Z,42.805,6.029,13.2940,4.59957,2471.964,2017-11-14T12:25:06Z
2017-11-14T10:26:41Z,42.805,6.029,13.2939,4.59957,2471.964,2017-11-14T12:28:09Z
2017-11-14T10:29:44Z,42.805,6.029,13.2940,4.59957,2472.002,2017-11-14T12:31:11Z
2017-11-14T10:32:47Z,42.805,6.029,13.2935,4.59960,2471.979,2017-11-14T12:34:14Z
2017-11-14T10:35:50Z,42.805,6.029,13.2937,4.59957,2471.957,2017-11-14T12:37:17Z
2017-11-14T10:38:53Z,42.805,6.029,13.2938,4.59956,2471.964,2017-11-14T12:40:20Z
2017-11-14T10:41:56Z,42.805,6.029,13.2937,4.59957,2471.957,2017-11-14T12:43:23Z
2017-11-14T10:44:59Z,42.805,6.029,13.2935,4.59958,2471.979,2017-11-14T12:46:26Z
2017-11-14T10:48:02Z,42.805,6.029,13.2935,4.59956,2471.964,2017-11-14T12:49:29Z
2017-11-14T10:51:04Z,42.805,6.029,13.2942,4.59958,2471.957,2017-11-14T12:52:32Z
2017-11-14T10:54:07Z,42.805,6.029,13.2938,4.59957,2471.979,2017-11-14T12:55:35Z
2017-11-14T10:57:10Z,42.805,6.029,13.2936,4.59957,2471.942,2017-11-14T12:58:38Z
2017-11-14T11:00:13Z,42.805,6.029,13.2939,4.59957,2471.957,2017-11-14T13:01:40Z
2017-11-14T11:03:16Z,42.805,6.029,13.2938,4.59956,2471.957,2017-11-14T13:04:43Z
2017-11-14T11:06:19Z,42.805,6.029,13.2937,4.59956,2471.979,2017-11-14T13:07:46Z
2017-11-14T11:09:22Z,42.805,6.029,13.2937,4.59958,2471.979,2017-11-14T13:10:49Z
2017-11-14T11:12:25Z,42.805,6.029,13.2935,4.59956,2471.979,2017-11-14T13:13:52Z
2017-11-14T11:15:28Z,42.805,6.029,13.2938,4.59957,2471.964,2017-11-14T13:16:55Z
2017-11-14T11:18:31Z,42.805,6.029,13.2941,4.59957,2471.942,2017-11-14T13:19:58Z
2017-11-14T11:21:33Z,42.805,6.029,13.2939,4.59957,2472.002,2017-11-14T13:23:01Z
2017-11-14T11:24:36Z,42.805,6.029,13.2940,4.59957,2471.964,2017-11-14T13:26:04Z
2017-11-14T11:27:39Z,42.805,6.029,13.2936,4.59957,2471.979,2017-11-14T13:29:06Z
2017-11-14T11:30:42Z,42.805,6.029,13.2939,4.59958,2471.964,2017-11-14T13:32:09Z
2017-11-14T11:33:45Z,42.805,6.029,13.2941,4.59957,2471.979,2017-11-14T13:35:12Z
2017-11-14T11:36:48Z,42.805,6.029,13.2941,4.59957,2471.979,2017-11-14T13:38:15Z
2017-11-14T11:39:51Z,42.805,6.029,13.2935,4.59958,2471.979,2017-11-14T13:41:18Z
2017-11-14T11:42:54Z,42.805,6.029,13.2935,4.59958,2471.979,2017-11-14T13:44:21Z
2017-11-14T11:45:57Z,42.805,6.029,13.2940,4.59957,2471.979,2017-11-14T13:47:24Z
2017-11-14T11:49:00Z,42.805,6.029,13.2940,4.59958,2472.024,2017-11-14T13:50:27Z
2017-11-14T11:52:02Z,42.805,6.029,13.2941,4.59958,2471.979,2017-11-14T13:53:30Z
2017-11-14T11:55:05Z,42.805,6.029,13.2939,4.59960,2471.987,2017-11-14T13:56:33Z
2017-11-14T11:58:08Z,42.805,6.029,13.2936,4.59957,2471.987,2017-11-14T13:59:35Z
2017-11-14T12:01:11Z,42.805,6.029,13.2941,4.59957,2471.987,2017-11-14T14:02:38Z
2017-11-14T12:04:14Z,42.805,6.029,13.2939,4.59962,2471.979,2017-11-14T14:05:41Z
2017-11-14T12:07:17Z,42.805,6.029,13.2939,4.59957,2471.987,2017-11-14T14:08:44Z
2017-11-14T12:10:20Z,42.805,6.029,13.2940,4.59957,2471.979,2017-11-14T14:11:47Z
2017-11-14T12:13:23Z,42.805,6.029,13.2939,4.59958,2472.002,2017-11-14T14:14:50Z
2017-11-14T12:16:26Z,42.805,6.029,13.2938,4.59958,2472.002,2017-11-14T14:17:53Z
2017-11-14T12:19:28Z,42.805,6.029,13.2937,4.59956,2472.002,2017-11-14T14:20:56Z
2017-11-14T12:22:31Z,42.805,6.029,13.2937,4.59956,2472.01,2017-11-14T14:23:59Z
2017-11-14T12:25:34Z,42.805,6.029,13.2935,4.59957,2472.002,2017-11-14T14:27:02Z
2017-11-14T12:28:37Z,42.805,6.029,13.2938,4.59956,2472.01,2017-11-14T14:30:04Z
2017-11-14T12:31:40Z,42.805,6.029,13.2933,4.59956,2472.01,2017-11-14T14:33:07Z
2017-11-14T12:34:43Z,42.805,6.029,13.2939,4.59956,2472.024,2017-11-14T14:36:10Z
2017-11-14T12:37:46Z,42.805,6.029,13.2936,4.59958,2472.047,2017-11-14T14:39:13Z
2017-11-14T12:40:49Z,42.805,6.029,13.2933,4.59957,2472.01,2017-11-14T14:42:16Z
2017-11-14T12:43:52Z,42.805,6.029,13.2937,4.59956,2471.979,2017-11-14T14:45:19Z
2017-11-14T12:46:55Z,42.805,6.029,13.2935,4.59958,2472.01,2017-11-14T14:48:22Z
2017-11-14T12:49:57Z,42.805,6.029,13.2940,4.59957,2472.024,2017-11-14T14:51:25Z
2017-11-14T12:53:00Z,42.805,6.029,13.2939,4.59957,2472.047,2017-11-14T14:54:28Z
2017-11-14T12:56:03Z,42.805,6.029,13.2940,4.59957,2472.024,2017-11-14T14:57:31Z
2017-11-14T12:59:06Z,42.805,6.029,13.2937,4.59956,2472.002,2017-11-14T15:00:33Z
2017-11-14T13:02:09Z,42.805,6.029,13.2939,4.59956,2472.047,2017-11-14T15:03:36Z
2017-11-14T13:05:12Z,42.805,6.029,13.2934,4.59956,2472.047,2017-11-14T15:06:39Z
2017-11-14T13:08:15Z,42.805,6.029,13.2932,4.59955,2472.024,2017-11-14T15:09:42Z
2017-11-14T13:11:18Z,42.805,6.029,13.2934,4.59957,2472.032,2017-11-14T15:12:45Z
2017-11-14T13:14:21Z,42.805,6.029,13.2938,4.59956,2472.024,2017-11-14T15:15:48Z
2017-11-14T13:17:24Z,42.805,6.029,13.2936,4.59956,2472.024,2017-11-14T15:18:51Z
2017-11-14T13:20:26Z,42.805,6.029,13.2937,4.59957,2472.024,2017-11-14T15:21:54Z
2017-11-14T13:23:29Z,42.805,6.029,13.2940,4.59957,2472.024,2017-11-14T15:24:57Z
2017-11-14T13:26:32Z,42.805,6.029,13.2939,4.59957,2472.01,2017-11-14T15:27:59Z
2017-11-14T13:29:35Z,42.805,6.029,13.2941,4.59957,2472.024,2017-11-14T15:31:02Z
2017-11-14T13:32:38Z,42.805,6.029,13.2940,4.59958,2472.01,2017-11-14T15:34:05Z
2017-11-14T13:35:41Z,42.805,6.029,13.2935,4.59958,2472.069,2017-11-14T15:37:08Z
2017-11-14T13:38:44Z,42.805,6.029,13.2936,4.59957,2472.047,2017-11-14T15:40:11Z
2017-11-14T13:41:47Z,42.805,6.029,13.2939,4.59956,2472.047,2017-11-14T15:43:14Z
2017-11-14T13:44:50Z,42.805,6.029,13.2938,4.59958,2472.047,2017-11-14T15:46:17Z
2017-11-14T13:47:53Z,42.805,6.029,13.2940,4.59957,2472.055,2017-11-14T15:49:20Z
2017-11-14T13:50:55Z,42.805,6.029,13.2934,4.59958,2472.055,2017-11-14T15:52:23Z
2017-11-14T13:53:58Z,42.805,6.029,13.2935,4.59958,2472.055,2017-11-14T15:55:26Z
2017-11-14T13:57:01Z,42.805,6.029,13.2937,4.59961,2472.069,2017-11-14T15:58:28Z
2017-11-14T14:00:04Z,42.805,6.029,13.2939,4.59957,2472.069,2017-11-14T16:01:31Z
2017-11-14T14:03:07Z,42.805,6.029,13.2940,4.59957,2472.047,2017-11-14T16:04:34Z
2017-11-14T14:06:10Z,42.805,6.029,13.2939,4.59959,2472.069,2017-11-14T16:07:37Z
2017-11-14T14:09:13Z,42.805,6.029,13.2941,4.59958,2472.055,2017-11-14T16:10:40Z
2017-11-14T14:12:16Z,42.805,6.029,13.2934,4.59956,2472.069,2017-11-14T16:13:43Z
2017-11-14T14:15:19Z,42.805,6.029,13.2939,4.59958,2472.077,2017-11-14T16:16:46Z
2017-11-14T14:18:21Z,42.805,6.029,13.2938,4.59956,2472.077,2017-11-14T16:19:49Z
2017-11-14T14:21:24Z,42.805,6.029,13.2937,4.59956,2472.077,2017-11-14T16:22:52Z
2017-11-14T14:24:27Z,42.805,6.029,13.2932,4.59958,2472.077,2017-11-14T16:25:54Z
2017-11-14T14:27:30Z,42.805,6.029,13.2937,4.59958,2472.092,2017-11-14T16:28:57Z
2017-11-14T14:30:33Z,42.805,6.029,13.2939,4.59956,2472.092,2017-11-14T16:32:00Z
2017-11-14T14:33:36Z,42.805,6.029,13.2939,4.59958,2472.077,2017-11-14T16:35:03Z
2017-11-14T14:36:39Z,42.805,6.029,13.2935,4.59957,2472.115,2017-11-14T16:38:06Z
2017-11-14T14:39:42Z,42.805,6.029,13.2936,4.59958,2472.115,2017-11-14T16:41:09Z
2017-11-14T14:42:45Z,42.805,6.029,13.2935,4.59957,2472.092,2017-11-14T16:44:12Z
2017-11-14T14:45:48Z,42.805,6.029,13.2938,4.59958,2472.092,2017-11-14T16:47:15Z
2017-11-14T14:48:50Z,42.805,6.029,13.2939,4.59957,2472.069,2017-11-14T16:50:18Z
2017-11-14T14:51:53Z,42.805,6.029,13.2937,4.59957,2472.077,2017-11-14T16:53:21Z
2017-11-14T14:54:56Z,42.805,6.029,13.2936,4.59958,2472.137,2017-11-14T16:56:23Z
2017-11-14T14:57:59Z,42.805,6.029,13.2937,4.59957,2472.115,2017-11-14T16:59:26Z